FW4267 Weather Reports


time (UTC)temp
F
wind
direction
speed
knots
gust
knots
rain 1hr
in
rain 24hr
in
rain mn
in
humidity
%
barometer
mb
20260510043035 53 96 0.9 2.6 0.00 0.07 0.07 94 1008.5
20260510042841 53 96 0.9 2.6 0.00 0.07 0.07 94 1008.5
20260510042034 53 93 0.9 3.5 0.00 0.07 0.07 94 1008.5
20260510041533 53 117 1.7 3.5 0.00 0.07 0.07 94 1008.6
20260510041035 53 113 1.7 3.5 0.00 0.07 0.07 94 1008.6
20260510040532 54 94 1.7 4.3 0.00 0.07 0.07 94 1008.6
20260510040033 54 97 2.6 4.3 0.00 0.07 0.07 94 1008.6
20260510035534 54 127 1.7 3.5 0.00 0.07 0.07 94 1008.7
20260510035032 54 114 1.7 4.3 0.00 0.07 0.07 94 1008.7
20260510034534 54 103 1.7 4.3 0.00 0.07 0.07 94 1008.7
20260510034035 54 102 1.7 3.5 0.00 0.07 0.07 94 1008.7
20260510033534 54 99 0.0 4.3 0.00 0.07 0.07 94 1008.8
20260510033032 54 107 1.7 4.3 0.00 0.07 0.07 94 1008.8
20260510032531 54 94 0.9 2.6 0.00 0.07 0.07 94 1009.0
20260510032032 54 94 0.0 1.7 0.00 0.07 0.07 94 1008.9
20260510031531 54 96 0.0 2.6 0.00 0.07 0.07 93 1008.9
20260510031033 54 97 0.0 2.6 0.00 0.07 0.07 93 1009.0
20260510030837 54 65 0.9 2.6 0.00 0.07 0.07 93 1009.0
20260510030341 54 96 0.9 2.6 0.00 0.07 0.07 93 1008.9
20260510025531 54 109 0.9 2.6 0.00 0.07 0.07 93 1009.0
20260510025035 54 104 0.9 3.5 0.00 0.07 0.07 93 1009.0
20260510024530 54 96 1.7 3.5 0.00 0.07 0.07 93 1009.0
20260510024032 54 114 1.7 3.5 0.00 0.07 0.07 92 1009.0
20260510023531 54 100 0.9 1.7 0.00 0.07 0.07 92 1009.1
20260510023031 54 106 0.0 1.7 0.00 0.07 0.07 92 1009.1
20260510022531 54 96 0.0 0.9 0.00 0.07 0.07 91 1009.1
20260510022031 54 96 0.0 0.9 0.00 0.07 0.07 91 1009.0
20260510021531 54 96 0.0 1.7 0.00 0.07 0.07 91 1009.0
20260510021344 55 96 0.9 1.7 0.00 0.07 0.07 91 1009.0
20260510020531 55 104 0.9 1.7 0.00 0.07 0.07 91 1009.1
20260510020030 55 99 0.0 1.7 0.00 0.07 0.07 91 1009.2
20260510015529 55 93 0.9 1.7 0.00 0.07 0.07 90 1009.2
20260510015031 55 99 0.0 4.3 0.00 0.07 0.07 90 1009.2
20260510014528 55 118 0.9 4.3 0.00 0.07 0.07 90 1009.2
20260510014345 55 116 0.9 1.7 0.00 0.07 0.07 90 1009.1
20260510013530 55 110 0.9 1.7 0.00 0.07 0.07 90 1009.1
20260510013032 55 89 0.0 0.9 0.00 0.07 0.07 89 1009.1
20260510012528 55 87 0.0 3.5 0.00 0.07 0.07 89 1009.2
20260510012031 55 114 0.9 3.5 0.00 0.07 0.07 89 1009.2
20260510011529 55 114 1.7 3.5 0.00 0.07 0.07 89 1009.3
20260510011028 55 102 0.9 6.1 0.00 0.07 0.07 88 1009.3
20260510010529 56 86 3.5 9.6 0.00 0.07 0.07 88 1009.3
20260510010030 56 116 4.3 9.6 0.00 0.07 0.07 87 1009.2
20260510005531 56 110 3.5 6.1 0.00 0.07 0.07 87 1009.2
20260510005029 56 55 1.7 8.7 0.00 0.07 0.07 86 1009.2
20260510004530 56 110 3.5 9.6 0.00 0.07 0.07 86 1009.3
20260510004027 56 93 4.3 9.6 0.00 0.07 0.07 87 1009.4
20260510003837 56 94 4.3 7.8 0.00 0.07 0.07 87 1009.5
20260510003029 56 116 3.5 7.8 0.00 0.07 0.07 87 1009.6
20260510002529 56 137 4.3 7.8 0.00 0.07 0.07 87 1009.5
20260510002028 56 99 2.6 6.1 0.00 0.07 0.07 89 1009.6
20260510001832 56 102 1.7 3.5 0.00 0.07 0.07 90 1009.7
20260510001028 56 123 0.9 3.5 0.01 0.07 0.07 91 1009.7
20260510000540 56 85 1.7 3.5 0.01 0.07 0.07 91 1009.7
20260510000030 55 117 0.0 0.9 0.01 0.07 0.07 92 1009.8
20260509235526 55 106 0.0 0.9 0.01 0.07 0.07 92 1009.9
20260509235026 55 106 0.0 0.9 0.01 0.07 0.07 92 1010.0
20260509234528 55 106 0.0 0.9 0.03 0.07 0.07 92 1010.1
20260509234028 55 106 0.0 0.0 0.05 0.07 0.07 92 1009.9
20260509233835 55 106 0.0 0.0 0.07 0.07 0.07 92 1009.9
20260509233026 55 106 0.0 0.0 0.07 0.07 0.07 91 1009.9
20260509232529 55 106 0.0 0.0 0.07 0.07 0.07 91 1009.9
20260509232026 56 106 0.0 0.0 0.07 0.07 0.07 91 1009.9
20260509231527 56 106 0.0 0.0 0.07 0.07 0.07 91 1010.0
20260509231026 56 106 0.0 0.0 0.06 0.06 0.06 90 1010.1
20260509230526 56 106 0.0 0.0 0.06 0.06 0.06 89 1010.1
20260509230153 56 106 0.0 0.9 0.06 0.06 0.06 88 1010.0
20260509230122 56 106 0.0 0.9 0.06 0.06 0.06 89 1010.2
20260509225027 57 107 0.0 0.9 0.06 0.06 0.06 88 1010.0
20260509224525 57 107 0.0 0.9 0.04 0.04 0.05 86 1010.0
20260509224028 57 107 0.0 0.9 0.02 0.02 0.02 85 1010.0
20260509223525 57 107 0.0 0.0 0.00 0.00 0.00 84 1009.9
20260509223027 57 107 0.0 0.0 0.00 0.00 0.00 84 1010.1
20260509222842 57 107 0.0 0.0 0.00 0.00 0.00 83 1009.9
20260509222026 57 107 0.0 0.0 0.00 0.00 0.00 83 1010.0
20260509221526 57 107 0.0 0.0 0.00 0.00 0.00 83 1009.9
20260509221025 57 107 0.0 0.0 0.00 0.00 0.00 83 1009.8
20260509220526 57 107 0.0 0.0 0.00 0.00 0.00 82 1009.8
20260509220024 57 107 0.0 0.9 0.00 0.00 0.00 82 1009.7
20260509215527 57 107 0.0 0.9 0.00 0.00 0.00 82 1009.7
20260509215024 57 107 0.0 0.0 0.00 0.00 0.00 81 1009.6
20260509214837 57 107 0.0 0.9 0.00 0.00 0.00 81 1009.7
20260509214025 57 107 0.0 0.9 0.00 0.00 0.00 81 1009.8
20260509213526 57 107 0.9 0.9 0.00 0.00 0.00 80 1009.8
20260509213027 58 107 0.9 0.9 0.00 0.00 0.00 80 1009.6
20260509212524 58 107 0.0 0.9 0.00 0.00 0.00 79 1009.4
20260509212026 58 109 0.0 3.5 0.00 0.00 0.00 79 1009.3
20260509211526 58 111 0.9 3.5 0.00 0.00 0.00 79 1009.2
20260509211026 58 100 0.9 1.7 0.00 0.00 0.00 78 1009.1
20260509210841 58 97 0.0 0.9 0.00 0.00 0.00 78 1009.1
20260509210025 58 97 0.0 0.9 0.00 0.00 0.00 78 1009.1
20260509205526 58 104 0.0 0.9 0.00 0.00 0.00 78 1009.1
20260509205037 59 104 0.0 0.9 0.00 0.00 0.00 77 1009.1
20260509204854 59 104 0.0 0.0 0.00 0.00 0.00 77 1009.1
20260509204024 59 104 0.0 0.9 0.00 0.00 0.00 76 1009.0
20260509203526 59 104 0.0 0.9 0.00 0.00 0.00 77 1009.0
20260509203023 59 99 0.0 2.6 0.00 0.00 0.00 76 1009.0
20260509202525 59 99 0.0 3.5 0.00 0.00 0.00 76 1009.0
20260509202024 59 123 1.7 3.5 0.00 0.00 0.00 76 1008.9
20260509201849 59 89 1.7 3.5 0.00 0.00 0.00 76 1008.7
20260509201024 59 111 1.7 2.6 0.00 0.00 0.00 76 1008.8
20260509200523 59 90 1.7 3.5 0.00 0.00 0.00 75 1008.7
20260509200024 59 104 1.7 3.5 0.00 0.00 0.00 75 1008.7
20260509195524 60 100 1.7 5.2 0.00 0.00 0.00 75 1008.7
20260509195025 60 104 1.7 5.2 0.00 0.00 0.00 74 1008.6
20260509194833 60 117 2.6 4.3 0.00 0.00 0.00 74 1008.6
20260509194026 60 110 2.6 8.7 0.00 0.00 0.00 74 1008.5
20260509193524 60 94 2.6 8.7 0.00 0.00 0.00 74 1008.5
20260509193242 60 89 3.5 8.7 0.00 0.00 0.00 74 1008.3
20260509193149 60 103 3.5 6.1 0.00 0.00 0.00 74 1008.5
20260509192023 60 89 3.5 8.7 0.00 0.00 0.00 74 1008.2
20260509191522 60 97 4.3 7.8 0.00 0.00 0.00 74 1008.2
20260509191025 61 92 4.3 11.3 0.00 0.00 0.00 74 1008.2
20260509190522 61 104 4.3 11.3 0.00 0.00 0.00 75 1008.1
20260509190028 61 100 4.3 9.6 0.00 0.00 0.00 75 1008.0
20260509185850 61 103 4.3 9.6 0.00 0.00 0.00 75 1007.9
20260509185021 61 96 5.2 9.6 0.00 0.01 0.00 75 1008.0
20260509184520 61 94 3.5 7.8 0.00 0.01 0.00 76 1007.9
20260509184024 61 94 4.3 7.8 0.00 0.01 0.00 76 1007.8
20260509183521 62 87 3.5 6.1 0.00 0.02 0.00 76 1007.9
20260509183022 62 121 3.5 6.1 0.00 0.02 0.00 76 1007.7
20260509182522 62 86 2.6 6.1 0.00 0.02 0.00 76 1007.6
20260509182022 62 102 4.3 6.1 0.00 0.02 0.00 75 1007.8
20260509181522 62 96 2.6 9.6 0.00 0.02 0.00 76 1007.7
20260509181023 62 114 4.3 9.6 0.00 0.02 0.00 75 1007.7
20260509180520 62 100 4.3 9.6 0.00 0.02 0.00 75 1007.7
20260509180019 63 110 4.3 10.4 0.00 0.02 0.00 75 1007.7
20260509175523 63 111 4.3 10.4 0.00 0.02 0.00 75 1007.8
20260509175020 63 103 4.3 13.0 0.00 0.02 0.00 75 1007.7
20260509174522 63 79 5.2 13.0 0.00 0.02 0.00 74 1007.8
20260509174020 63 114 6.1 13.0 0.00 0.02 0.00 75 1007.8
20260509173522 64 100 6.1 13.0 0.00 0.02 0.00 74 1007.8
20260509173022 64 121 7.8 11.3 0.00 0.02 0.00 74 1007.9
20260509172519 64 133 6.1 10.4 0.00 0.02 0.00 75 1007.9
20260509172020 64 123 6.1 10.4 0.00 0.02 0.00 74 1007.9
20260509171517 64 76 3.5 12.2 0.00 0.02 0.00 75 1007.8
20260509171330 64 114 5.2 12.2 0.00 0.02 0.00 75 1007.9
20260509170842 64 107 5.2 10.4 0.00 0.02 0.00 74 1007.9
20260509170021 64 117 5.2 7.8 0.00 0.02 0.00 75 1007.9
20260509165518 64 124 3.5 9.6 0.00 0.02 0.00 75 1007.9
20260509165021 64 117 6.1 9.6 0.00 0.02 0.00 75 1007.9
20260509164519 64 102 5.2 13.0 0.00 0.02 0.00 75 1008.1
20260509164018 64 100 7.0 13.0 0.00 0.02 0.00 75 1008.1
20260509163533 64 121 6.1 12.2 0.00 0.02 0.00 75 1008.2
20260509163125 64 113 7.8 12.2 0.00 0.02 0.00 75 1008.3
20260509162018 64 135 7.8 13.0 0.00 0.02 0.00 75 1008.2
20260509161519 65 96 4.3 13.9 0.00 0.02 0.00 76 1008.3
20260509161337 65 59 7.0 13.9 0.00 0.02 0.00 75 1008.3
20260509160518 65 72 6.1 12.2 0.00 0.02 0.00 75 1008.2
20260509160017 64 97 7.0 15.6 0.00 0.02 0.00 75 1008.2
20260509155517 65 120 7.0 15.6 0.00 0.02 0.00 75 1008.2
20260509155017 65 113 7.8 13.9 0.00 0.02 0.00 74 1008.3
20260509154519 65 92 7.0 14.8 0.00 0.02 0.00 74 1008.4
20260509154019 65 71 8.7 14.8 0.00 0.02 0.00 73 1008.3
20260509153516 65 128 7.8 13.9 0.00 0.02 0.00 73 1008.3
20260509153019 65 89 7.0 13.9 0.00 0.02 0.00 73 1008.1
20260509152516 65 102 7.8 12.2 0.00 0.02 0.00 73 1008.1
20260509152015 66 90 7.0 14.8 0.00 0.02 0.00 73 1008.1
20260509151518 66 116 7.8 14.8 0.00 0.02 0.00 72 1008.2
20260509151016 66 116 8.7 13.9 0.00 0.02 0.00 72 1008.3
20260509150826 66 96 7.0 13.9 0.00 0.02 0.00 72 1008.3
20260509150014 66 104 7.8 13.0 0.00 0.02 0.00 72 1008.3
20260509145515 66 90 5.2 14.8 0.00 0.02 0.00 73 1008.3
20260509145014 66 110 8.7 14.8 0.00 0.02 0.00 72 1008.4
20260509144516 67 110 7.8 13.0 0.00 0.02 0.00 73 1008.5
20260509144321 67 110 7.0 14.8 0.00 0.02 0.00 71 1008.6
20260509143511 67 93 7.8 14.8 0.00 0.02 0.00 69 1008.6
20260509143012 67 85 7.8 13.9 0.00 0.02 0.00 69 1008.7
20260509142516 67 102 8.7 13.9 0.00 0.02 0.00 69 1008.9
20260509142017 67 117 7.8 13.9 0.00 0.02 0.00 68 1008.9
20260509141513 67 93 8.7 13.9 0.00 0.02 0.00 68 1008.9
20260509141015 68 96 8.7 13.9 0.00 0.02 0.00 68 1008.8
20260509140513 68 89 7.8 14.8 0.00 0.02 0.00 68 1008.9
20260509140328 68 106 8.7 14.8 0.00 0.02 0.00 68 1009.0
20260509135513 68 130 7.8 14.8 0.00 0.02 0.00 69 1008.9
20260509135321 68 120 7.0 14.8 0.00 0.02 0.00 68 1009.0
20260509134512 68 110 6.1 11.3 0.00 0.02 0.00 69 1009.0
20260509134321 68 121 7.8 15.6 0.00 0.02 0.00 70 1009.0
20260509133514 68 99 7.8 15.6 0.00 0.02 0.00 69 1009.0
20260509133013 68 102 6.1 13.0 0.00 0.02 0.00 70 1009.1
20260509132514 68 63 7.8 13.0 0.00 0.02 0.00 70 1009.2
20260509132124 68 93 9.6 13.0 0.00 0.02 0.00 70 1009.3
20260509132119 68 111 8.7 13.0 0.00 0.02 0.00 72 1009.4
20260509132113 68 104 7.0 12.2 0.00 0.02 0.00 71 1009.2
20260509132049 68 113 7.8 13.0 0.00 0.02 0.00 70 1009.2
20260509130012 68 96 7.8 13.0 0.00 0.02 0.00 72 1009.4
20260509125512 68 63 7.8 16.5 0.00 0.02 0.00 71 1009.4
20260509125012 68 111 7.8 16.5 0.00 0.02 0.00 72 1009.4
20260509124511 68 113 8.7 14.8 0.00 0.02 0.00 71 1009.5
20260509124013 68 113 7.0 13.0 0.00 0.02 0.00 73 1009.4
20260509123512 68 124 7.8 13.0 0.00 0.02 0.00 73 1009.4
20260509123011 68 89 7.0 13.0 0.00 0.02 0.00 72 1009.4
20260509122510 68 104 9.6 13.0 0.00 0.02 0.00 70 1009.5
20260509122011 69 118 8.7 13.0 0.00 0.02 0.00 70 1009.4
20260509121511 69 96 5.2 12.2 0.00 0.02 0.00 71 1009.4
20260509121010 69 121 7.8 11.3 0.00 0.02 0.00 70 1009.4
20260509120513 69 125 7.0 13.9 0.00 0.02 0.00 69 1009.4
20260509120011 68 118 5.2 13.9 0.00 0.02 0.00 69 1009.4
20260509115513 68 114 8.7 13.9 0.00 0.02 0.00 70 1009.5
20260509115010 68 96 6.1 13.9 0.00 0.02 0.00 68 1009.7
20260509114510 68 78 7.8 13.9 0.00 0.02 0.00 68 1009.8
20260509114009 68 116 7.8 13.0 0.00 0.02 0.00 68 1009.9
20260509113509 68 93 5.2 12.2 0.00 0.02 0.00 68 1010.0
20260509113317 68 103 7.8 12.2 0.00 0.02 0.00 66 1010.1
20260509112519 68 117 7.0 10.4 0.00 0.02 0.00 68 1010.1
20260509112317 68 128 5.2 10.4 0.00 0.02 0.00 69 1010.2
20260509111509 67 107 5.2 10.4 0.00 0.02 0.00 70 1010.3
20260509111011 67 93 5.2 10.4 0.00 0.02 0.00 70 1010.3
20260509110509 67 109 7.0 10.4 0.00 0.02 0.00 70 1010.3
20260509110010 67 116 6.1 11.3 0.00 0.02 0.00 69 1010.4
20260509105635 67 107 4.3 13.0 0.00 0.02 0.00 72 1010.6
20260509105604 67 107 7.0 11.3 0.00 0.02 0.00 71 1010.5
20260509104510 67 107 7.0 13.0 0.00 0.02 0.00 71 1010.6
20260509104010 67 102 6.1 12.2 0.00 0.02 0.00 71 1010.5
20260509103510 66 111 7.0 12.2 0.00 0.02 0.00 71 1010.4
20260509103008 66 125 6.1 10.4 0.00 0.02 0.00 74 1010.5
20260509102508 66 123 4.3 11.3 0.00 0.02 0.00 72 1010.5
20260509102008 66 80 6.1 11.3 0.00 0.02 0.00 72 1010.4
20260509101508 67 128 6.1 11.3 0.00 0.02 0.00 72 1010.5
20260509101315 66 49 6.1 11.3 0.00 0.02 0.00 72 1010.6
20260509100507 66 103 5.2 11.3 0.00 0.02 0.00 73 1010.6
20260509100313 66 103 5.2 9.6 0.00 0.02 0.00 73 1010.6
20260509095507 66 93 5.2 9.6 0.00 0.02 0.00 72 1010.7
20260509095009 66 127 5.2 10.4 0.00 0.02 0.00 74 1010.9
20260509094508 65 154 4.3 10.4 0.00 0.02 0.00 74 1010.8
20260509094007 65 103 5.2 10.4 0.00 0.02 0.00 75 1010.7
20260509093818 65 107 4.3 10.4 0.00 0.02 0.00 74 1010.8
20260509093005 65 83 5.2 11.3 0.00 0.02 0.00 74 1010.7
20260509092520 65 110 5.2 11.3 0.00 0.02 0.00 75 1010.9
20260509092007 64 99 5.2 13.0 0.00 0.02 0.00 76 1010.9
20260509091817 64 106 7.8 13.0 0.00 0.02 0.00 75 1010.9
20260509091007 64 124 5.2 10.4 0.00 0.02 0.00 77 1010.9
20260509090506 64 97 4.3 12.2 0.00 0.02 0.00 76 1010.7
20260509090007 64 109 5.2 13.0 0.00 0.02 0.00 77 1010.8
20260509085506 63 106 6.1 13.0 0.00 0.02 0.00 79 1010.8
20260509085007 63 76 6.1 12.2 0.00 0.02 0.00 78 1010.8
20260509084815 63 100 5.2 7.8 0.00 0.02 0.00 78 1010.8
20260509084021 63 92 3.5 9.6 0.00 0.02 0.00 80 1010.8
20260509083507 62 111 7.0 9.6 0.00 0.02 0.00 77 1010.8
20260509083007 62 113 4.3 9.6 0.00 0.02 0.00 80 1010.9
20260509082505 62 114 4.3 9.6 0.00 0.02 0.00 81 1010.9
20260509082005 62 131 4.3 10.4 0.00 0.02 0.00 83 1011.0
20260509081832 61 93 3.5 10.4 0.00 0.02 0.00 81 1010.9
20260509081017 61 73 7.0 10.4 0.00 0.02 0.00 81 1010.9
20260509080504 61 83 5.2 8.7 0.00 0.02 0.00 83 1011.0
20260509080005 60 116 3.5 8.7 0.00 0.02 0.00 84 1010.9
20260509075506 60 92 5.2 8.7 0.00 0.02 0.00 84 1010.9
20260509075005 60 94 4.3 6.1 0.00 0.02 0.00 84 1011.0
20260509074519 60 117 3.5 6.1 0.00 0.02 0.00 85 1011.0
20260509074006 60 121 3.5 8.7 0.00 0.02 0.00 86 1011.0
20260509073812 60 114 4.3 8.7 0.00 0.02 0.00 86 1011.1
20260509073309 59 73 4.3 8.7 0.00 0.02 0.00 86 1011.1
20260509072931 59 121 6.1 10.4 0.00 0.02 0.00 86 1011.1
20260509072925 59 55 3.5 10.4 0.00 0.02 0.00 87 1011.1
20260509071813 59 113 4.3 8.7 0.00 0.02 0.00 87 1011.0
20260509071004 59 113 3.5 7.8 0.00 0.02 0.00 87 1011.1
20260509070505 58 89 3.5 5.2 0.00 0.02 0.00 87 1011.1
20260509070006 58 123 2.6 7.8 0.00 0.02 0.00 88 1011.2
20260509065504 58 99 2.6 7.8 0.00 0.02 0.00 88 1011.3
20260509065000 58 114 1.7 4.3 0.00 0.02 0.00 89 1011.3
20260509064501 58 113 1.7 3.5 0.00 0.02 0.00 90 1011.3
20260509064000 57 130 1.7 3.5 0.00 0.02 0.00 90 1011.3
20260509063502 57 94 0.9 3.5 0.00 0.02 0.00 91 1011.4
20260509063310 57 94 0.9 3.5 0.00 0.02 0.00 91 1011.4
20260509062504 56 106 1.7 4.3 0.00 0.02 0.00 91 1011.4
20260509062003 56 131 1.7 4.3 0.00 0.02 0.00 92 1011.3
20260509061505 56 97 0.9 3.5 0.00 0.02 0.00 92 1011.3
20260509061002 56 96 0.0 3.5 0.00 0.02 0.00 92 1011.4
20260509060502 56 121 0.9 2.6 0.00 0.02 0.00 92 1011.3
20260509060000 56 93 0.0 1.7 0.00 0.02 0.00 92 1011.3
20260509055500 56 97 0.9 1.7 0.00 0.02 0.00 93 1011.3
20260509055002 55 121 0.0 0.9 0.00 0.02 0.00 93 1011.3
20260509054501 55 96 0.0 0.9 0.00 0.02 0.00 93 1011.3
20260509054003 55 96 0.0 0.9 0.00 0.02 0.00 93 1011.1
20260509053807 55 96 0.0 4.3 0.00 0.02 0.00 93 1011.0
20260509053001 55 96 0.9 4.3 0.00 0.02 0.00 93 1011.0
20260509052501 55 124 0.0 2.6 0.00 0.02 0.00 93 1011.0
20260509052001 55 68 0.9 2.6 0.00 0.02 0.00 93 1010.9
20260509051501 55 104 1.7 2.6 0.00 0.02 0.00 93 1010.9
20260509051000 55 113 0.0 3.5 0.00 0.02 0.00 93 1010.8
20260509050621 55 92 0.9 2.6 0.00 0.02 0.00 94 1011.1
20260509050553 55 93 0.9 3.5 0.00 0.02 0.00 94 1011.0
20260509045504 55 100 0.0 3.5 0.00 0.02 0.00 94 1011.1
20260509045000 55 121 0.9 3.5 0.00 0.02 0.00 94 1011.1
20260509044500 55 94 1.7 2.6 0.00 0.02 0.00 94 1011.1
20260509044000 55 117 0.9 1.7 0.00 0.02 0.00 94 1011.1